SL-23 R/B, 34112

Orbit data source: Space-Track

SL-23 R/B, 34112 is space debris in HEO originally from a launch on Thu, 26 Feb 2009 UTC launched from the Tyuratam Missile And Space Complex (TTMTR). Debris objects in space refer to the collection of defunct objects orbiting the Earth. Examples of debris include non-operational satellites, rocket bodies, and fragments generated from explosions, collisions, or faulty payload assembly.

Loading next visibility...
Identifier
34112, 2009-009B
Orbit
HEO
Country
Flag of CISCIS
Related business
Flag of RUSpace International Services (RU)
Manufacturer
RKKE
Mission
Spacecraft
Bus & Motor
BLOK DM2, 11D58M
Mass
2,540 kg wet, 2,540 kg dry
Launch date (UTC)
2009-02-26 (17 years ago)
Launch vehicle
Unknown
Launch site
Tyuratam Missile And Space Complex (TTMTR)
Object type
Payload
Rocket body
Debris
Shape & HBR
Cyl + 1 Nozzle, 3.0 m
Radar Cross Section
22.521 m², Large (>1 m²)

Expand to show TLE details & history
Last TLE update: 3 days ago

TLE from 3 days ago
0 SL-23 R/B
1 34112U 09009B   25305.48349455 -.00000235  00000-0  00000-0 0  9997
2 34112  35.1394 325.8830 6894423  87.5705 329.9994  2.20443336134331
Epoch: 2025-11-01T11:36Z
TLE epoch observation values (Epoch: 2025-11-01T11:36:13.929Z)
Latitude
-14.51708°
Longitude
89.28446°
Altitude
11,564.399 km
Speed
5.334 km/s
True Right ascension
20h 17m 25s
True Declination
-14° 29' 02"
Sunlit
Object was in daylight at epoch
Visualization orbit readout
Latitude
Unknown
Longitude
Unknown
Altitude
Unknown
Speed
Unknown
Apparent Right ascension
Unknown
Apparent Declination
Unknown
Sunlit
N/A
Visualization observer readout
Local Sidereal Time
12:56:05
Azimuth
Unknown
Elevation
Unknown
Doppler factor
Unknown
Orbital elements
Apogee altitude
35,758.015 km
Perigee altitude
1,367.441 km
Semi-major axis
24,940.865 km
Eccentricity
0.68944
Inclination
35.1394°
RAAN
325.883°
Arg. of periapsis
87.5705°
True anomaly
246.74407°
Mean anomaly
329.9994°
Eccentric anomaly
293.87838°
Mean motion
0.55103 °/min
Orbital period
653.32 mins
BSTAR
0
Loading maneuver chart data...
Computing Atmospheric mass density...
Loading historical data...
Loading historical data...
Loading historical data...
Loading historical data...
Loading historical data...
Loading historical data...
Loading historical data...
Other satellites on launch #9 in the year 2009 (2009-02-26 UTC)

Documentation

Showing up to 5 results
|